This demonstration page uses our WeatherBlox Daily Observations layout. Learn more.

Left ArrowRight Arrow

Hourly Observations for October 10, 2021

Temp ( °F °C ) Dew Point ( °F °C ) Humidity (%) Winds ( mph kmh ) Pressure ( in mb ) Visibility ( mi km ) Precip ( " mm )
12:15 am 00:15 Clear 63 17.1 42 5.4 46 46 NW 9 15 29.67 1005 10 16 N/A
12:35 am 00:35 Clear 62 16.5 43 5.9 50 50 NW 7 11 29.68 1005 10 16 N/A
12:55 am 00:55 Clear 59 15.2 43 6 54 54 NW 7 11 29.70 1006 10 16 N/A
1:15 am 01:15 Clear 58 14.2 44 6.5 60 60 NW 6 9 29.71 1006 10 16 N/A
1:35 am 01:35 Clear 57 13.9 44 6.6 62 62 N N/A 29.72 1006 10 16 N/A
1:55 am 01:55 Clear 56 13.3 44 6.6 64 64 WNW 7 11 29.72 1007 10 16 N/A
2:15 am 02:15 Clear 55 12.8 44 6.6 66 66 NW 5 7 29.72 1006 10 16 N/A
2:35 am 02:35 Clear 55 12.8 45 7 68 68 NW 7 11 29.73 1007 10 16 N/A
2:55 am 02:55 Clear 58 14.3 46 7.5 64 64 NW 9 15 29.72 1006 10 16 N/A
3:15 am 03:15 Clear 57 14.1 46 7.5 65 65 NW 7 11 29.71 1006 10 16 N/A
3:35 am 03:35 Clear 57 13.7 45 7.3 66 66 NW 9 15 29.70 1006 10 16 N/A
3:55 am 03:55 Clear 57 14 45 7.1 63 63 NW 14 22 29.70 1006 10 16 N/A
4:15 am 04:15 Clear 56 13.5 45 7 65 65 WNW 9 15 29.70 1006 10 16 N/A
4:35 am 04:35 Clear 56 13.3 45 7 66 66 WNW 8 13 29.72 1007 10 16 N/A
4:55 am 04:55 Clear 55 13 45 7.1 68 68 WNW 9 15 29.74 1007 10 16 N/A
5:15 am 05:15 Clear 55 12.8 45 7 68 68 WNW 9 15 29.74 1007 10 16 N/A
5:35 am 05:35 Clear 54 12.3 45 7.1 71 71 WNW 10 17 29.74 1007 10 16 N/A
5:55 am 05:55 Clear 54 12 45 7.3 73 73 WNW 13 20 29.75 1007 10 16 N/A
6:15 am 06:15 Clear 54 12 45 7.4 74 74 WNW 10 17 29.75 1007 10 16 N/A
6:35 am 06:35 Clear 53 11.6 45 7.3 75 75 NW 10 17 29.75 1007 10 16 N/A
6:55 am 06:55 Clear 52 11.3 46 7.5 78 78 NW 8 13 29.75 1007 10 16 N/A
7:15 am 07:15 Clear 53 11.6 46 7.6 77 77 NW 12 19 29.75 1007 10 16 N/A
7:35 am 07:35 Clear 53 11.8 46 7.7 76 76 NW 9 15 29.75 1007 10 16 N/A
7:55 am 07:55 Sunny 53 11.5 46 7.6 77 77 NW 7 11 29.75 1007 10 16 N/A
8:15 am 08:15 Sunny 52 11.3 46 7.7 79 79 NW 8 13 29.76 1008 10 16 N/A
8:35 am 08:35 Sunny 54 12 47 8.1 77 77 NW 10 17 29.77 1008 10 16 N/A
8:55 am 08:55 Sunny 55 12.9 47 8.2 73 73 NW 9 15 29.76 1008 10 16 N/A
9:15 am 09:15 Sunny 56 13.5 47 8.5 72 72 NW 12 19 29.75 1008 10 16 N/A
9:35 am 09:35 Sunny 58 14.2 47 8.5 69 69 NW 13 20 29.76 1008 10 16 N/A
9:55 am 09:55 Sunny 59 15 47 8.6 66 66 NW 18 30 29.75 1007 10 16 N/A
10:15 am 10:15 Sunny 60 15.5 47 8.1 62 62 NW 17 28 29.75 1007 10 16 N/A
10:35 am 10:35 Sunny 61 16 46 7.8 58 58 NNW 15 24 29.74 1007 10 16 N/A
10:55 am 10:55 Sunny 60 15.6 46 7.8 60 60 NNW 14 22 29.74 1007 10 16 N/A
11:15 am 11:15 Sunny 62 16.6 46 7.5 55 55 NNW 16 26 29.74 1007 10 16 N/A
11:35 am 11:35 Sunny 63 17.2 43 6 48 48 NNW 16 26 29.73 1007 10 16 N/A
11:55 am 11:55 Sunny 64 17.7 41 4.8 43 43 NW 14 22 29.74 1007 10 16 N/A
12:15 pm 12:15 Sunny 65 18.3 38 3.3 37 37 N 15 24 29.74 1007 10 16 N/A
12:55 pm 12:55 Sunny 65 18.5 36 2.1 34 34 N 14 22 29.72 1006 10 16 N/A
1:15 pm 13:15 Sunny 67 19.4 36 2.1 32 32 NNW 12 19 29.72 1007 10 16 N/A
1:35 pm 13:35 Sunny 68 20 35 1.7 30 30 N 15 24 29.70 1006 10 16 N/A
1:55 pm 13:55 Sunny 68 19.8 35 1.6 30 30 NNW 13 20 29.71 1006 10 16 N/A
2:15 pm 14:15 Sunny 68 19.9 35 1.4 29 29 NNW 12 19 29.71 1006 10 16 N/A
2:35 pm 14:35 Sunny 68 19.9 35 1.8 30 30 N 13 20 29.71 1006 10 16 N/A
2:55 pm 14:55 Sunny 67 19.6 35 1.9 31 31 N 9 15 29.70 1006 10 16 N/A
3:15 pm 15:15 Sunny 67 19.5 35 1.9 31 31 N 10 17 29.68 1005 10 16 N/A
3:35 pm 15:35 Sunny 67 19.6 36 2.1 31 31 N 9 15 29.68 1005 10 16 N/A
3:55 pm 15:55 Sunny 67 19.5 36 2.1 32 32 N 8 13 29.68 1005 10 16 N/A
4:15 pm 16:15 Sunny 68 20 36 2.4 31 31 N 10 17 29.67 1005 10 16 N/A
4:35 pm 16:35 Sunny 68 19.9 36 2.2 31 31 NNW 7 11 29.68 1005 10 16 N/A
4:55 pm 16:55 Sunny 68 20 37 2.5 31 31 N 8 13 29.67 1005 10 16 N/A
5:15 pm 17:15 Sunny 68 20.1 36 2.4 31 31 N 3 6 29.69 1005 10 16 N/A
5:35 pm 17:35 Sunny 67 19.4 36 2.3 32 32 N 8 13 29.70 1006 10 16 N/A
5:55 pm 17:55 Sunny 67 19.5 36 2.4 32 32 N 8 13 29.69 1005 10 16 N/A
6:15 pm 18:15 Sunny 65 18.5 38 3.1 36 36 N N/A 29.71 1006 10 16 N/A
6:35 pm 18:35 Sunny 64 17.5 39 3.7 40 40 N N/A 29.72 1006 10 16 N/A
6:55 pm 18:55 Sunny 63 17.1 40 4.2 43 43 N N/A 29.73 1007 10 16 N/A
7:15 pm 19:15 Clear 62 16.6 38 3.6 42 42 N 3 6 29.74 1007 10 16 N/A
7:35 pm 19:35 Clear 61 16.1 38 3.6 43 43 N 5 7 29.74 1007 10 16 N/A
7:55 pm 19:55 Clear 61 16.3 38 3.3 42 42 N 5 7 29.74 1007 10 16 N/A
8:15 pm 20:15 Clear 56 13.3 40 4.7 56 56 NNE 5 7 29.76 1008 10 16 N/A
8:35 pm 20:35 Clear 56 13.4 40 4.2 54 54 NNE 5 7 29.76 1008 10 16 N/A
8:55 pm 20:55 Clear 56 13.5 40 4.5 55 55 N 5 7 29.75 1008 10 16 N/A
9:15 pm 21:15 Clear 55 12.7 41 4.9 59 59 N N/A 29.75 1007 10 16 N/A
9:35 pm 21:35 Clear 54 12.1 41 4.9 62 62 N N/A 29.74 1007 10 16 N/A
9:55 pm 21:55 Clear 52 11.2 41 5 66 66 N N/A 29.76 1008 10 16 N/A
10:15 pm 22:15 Clear 50 9.8 41 5 72 72 NW 3 6 29.77 1008 10 16 N/A
10:35 pm 22:35 Clear 48 8.7 40 4.3 74 74 N N/A 29.79 1009 10 16 N/A
10:55 pm 22:55 Clear 48 9 41 4.9 76 76 WNW 3 6 29.77 1008 10 16 N/A
11:15 pm 23:15 Clear 49 9.5 40 4.7 72 72 NW 3 6 29.77 1008 10 16 N/A
11:35 pm 23:35 Clear 49 9.6 40 4.6 71 71 NW 6 9 29.76 1008 10 16 N/A
11:55 pm 23:55 Clear 49 9.2 40 4.4 72 72 N N/A 29.77 1008 10 16 N/A

Powered by AerisWeather